Погода в Каукае

Бразилия     3°44′07″S   38°39′39″W
темп.,
°C
ветер,
м/с
пор.,
м/с
влажн.,
%
обл.,
%
осадки,
мм/ч
давл.,
гПа
погр.,
м
26 февраля, пт
пт2600:00+24в139025 0.4 1010139
03:00+23в129343 2.1 1008106
06:00+23вюв019349 1.8 100979
09:00+28всв357167 3.4 1011978
12:00+31св465895 1.3 10101350
15:00+30св565988 1.6 10081238
18:00+25св368339 0.8 1008386
21:00+24всв249267 1.3 1010176
27 февраля, сб
сб2700:00+24в1292100 0.5 1010106
03:00+23вюв129397 0.9 100898
06:00+24ююз129292 0.3 101093
09:00+28в247671 1.8 1011797
12:00+29в457076 3.3 10101164
15:00+29всв466875 6.2 10081137
18:00+26в267889 0.4 1008294
21:00+24всв138595 0.5 1010133
28 февраля, вс
вс2800:00+24юв1289100 0.0 1009122
03:00+23юв129395 0.2 1008103
06:00+23ю129419 0.3 100998
09:00+29вюв356218 0.6 10111101
12:00+31в455511 0.6 10091523
15:00+31в45576 2.3 10061372
18:00+26всв35762 0.0 1007294
21:00+24в238914 0.0 1008147
1 марта, пн
пн100:00+24вюв138959 0.1 1008164
03:00+23юв139468 1.9 1007125
06:00+23юв139443 2.2 1008126
09:00+28вюв367135 2.8 10091010
12:00+29в477027 3.0 10081217
15:00+31в565014 3.7 10061556
18:00+26всв36750 0.0 1006350
21:00+25всв25860 0.1 1009213
2 марта, вт
вт200:00+24всв24902 0.6 1009153
03:00+23в23939 2.4 1008146
06:00+23юв139511 3.1 1009128
09:00+28вюв477316 4.1 10111083
12:00+30в57607 1.1 10101414
15:00+31в575322 1.4 10081582
18:00+26в37753 0.0 1009438
21:00+25в26842 0.0 1011339